Kremmling, CO

7:02 AM MDT on April 26, 2017 (GMT -0600)
Kremmling

Weather History for K20V - August, 2013

Change the Weather History Date:

Tuesday, August 6, 2013

  Actual Average Record
Temperature  
Mean Temperature 57 °F -  
Max Temperature 73 °F - 82 °F (2006)
Min Temperature 41 °F - 41 °F (2005)
Degree Days  
Heating Degree Days 8    
Month to date heating degree days  
Cooling Degree Days 0    
Month to date cooling degree days  
Growing Degree Days 7 (Base 50)    
Moisture  
Dew Point 44 °F    
Average Humidity 65    
Maximum Humidity 93    
Minimum Humidity 36    
Precipitation  
Precipitation 0.01 in - 0.08 in (2016)
Sea Level Pressure  
Sea Level Pressure 30.31 in    
Wind  
Wind Speed 2 mph (SSW)    
Max Wind Speed 20 mph    
Max Gust Speed 34 mph    
Visibility 10 miles    
Events Rain , Thunderstorm    
T = Trace of Precipitation, MM = Missing Value Source: NWS Daily Summary

Daily Weather History Graph

Daily Weather History Graph

Search for Another Location

Airport or City:

Trip Planner

Search our weather history database for the weather conditions in past years. The results will help you decide how hot, cold, wet, or windy it might be!

Date:

Astronomy

Aug. 06, 2013 Rise Set
Actual Time 6:08 AM MDT 8:13 PM MDT
Civil Twilight 5:38 AM MDT 8:43 PM MDT
Nautical Twilight 5:02 AM MDT 9:19 PM MDT
Astronomical Twilight 4:22 AM MDT 9:58 PM MDT
Moon 6:02 AM MDT (8/6) 7:49 PM MDT (8/6)
Length of Visible Light 15h 04m
Length of Day
14h 04m
Waning Crescent, 0% of the Moon is Illuminated
Aug 6
Waning Crescent
Aug 6
New
Aug 14
First Quarter
Aug 20
Full
Aug 28
Last Quarter

Hourly Weather History & Observations

Time (MDT) Temp. Windchill Dew Point Humidity Pressure Visibility Wind Dir Wind Speed Gust Speed Precip Events Conditions
12:16 AM 51.8 °F - 46.4 °F 82% 30.32 in 10.0 mi Calm Calm - N/A   Clear
12:36 AM 51.8 °F - 46.4 °F 82% 30.33 in 10.0 mi East 4.6 mph - N/A   Clear
12:56 AM 50.0 °F - 44.6 °F 82% 30.33 in 10.0 mi East 3.5 mph - N/A   Clear
1:16 AM 50.0 °F - 44.6 °F 82% 30.33 in 10.0 mi Calm Calm - N/A   Clear
1:36 AM 50.0 °F - 44.6 °F 82% 30.32 in 10.0 mi Calm Calm - N/A   Clear
1:56 AM 50.0 °F - 44.6 °F 82% 30.32 in 10.0 mi Calm Calm - N/A   Clear
2:16 AM 50.0 °F - 44.6 °F 82% 30.32 in 10.0 mi Calm Calm - N/A   Clear
2:36 AM 46.4 °F - 42.8 °F 87% 30.32 in 10.0 mi Calm Calm - N/A   Clear
2:56 AM 46.4 °F - 44.6 °F 93% 30.32 in 10.0 mi Calm Calm - N/A   Clear
3:16 AM 50.0 °F - 44.6 °F 82% 30.32 in 10.0 mi Calm Calm - N/A   Clear
3:36 AM 46.4 °F - 42.8 °F 87% 30.32 in 10.0 mi Calm Calm - N/A   Clear
3:56 AM 46.4 °F 45.2 °F 42.8 °F 87% 30.31 in 10.0 mi East 3.5 mph - N/A   Clear
4:16 AM 44.6 °F - 42.8 °F 93% 30.32 in 10.0 mi Calm Calm - N/A   Clear
4:36 AM 44.6 °F - 42.8 °F 93% 30.32 in 10.0 mi Calm Calm - N/A   Clear
4:56 AM 42.8 °F - 41.0 °F 93% 30.32 in 4.0 mi Calm Calm - N/A   Clear
5:16 AM 42.8 °F - 41.0 °F 93% 30.32 in 10.0 mi Calm Calm - N/A   Clear
5:36 AM 42.8 °F - 41.0 °F 93% 30.32 in 10.0 mi Calm Calm - N/A   Clear
5:56 AM 42.8 °F - 41.0 °F 93% 30.33 in 10.0 mi Calm Calm - N/A   Clear
6:16 AM 42.8 °F - 41.0 °F 93% 30.34 in 10.0 mi Calm Calm - N/A   Clear
6:36 AM 41.0 °F - 39.2 °F 93% 30.34 in 0.8 mi Calm Calm - N/A   Mostly Cloudy
6:55 AM 42.8 °F - 41.0 °F 93% 30.34 in 0.8 mi Calm Calm - N/A   Mostly Cloudy
7:16 AM 44.6 °F - 41.0 °F 87% 30.34 in 10.0 mi Calm Calm - N/A   Scattered Clouds
7:36 AM 46.4 °F - 44.6 °F 93% 30.34 in 10.0 mi Calm Calm - N/A   Scattered Clouds
7:56 AM 46.4 °F - 44.6 °F 93% 30.34 in 1.2 mi Calm Calm - N/A   Mostly Cloudy
8:15 AM 50.0 °F - 44.6 °F 82% 30.34 in 10.0 mi Calm Calm - N/A   Scattered Clouds
8:36 AM 51.8 °F - 44.6 °F 76% 30.34 in 10.0 mi Calm Calm - N/A   Clear
8:55 AM 53.6 °F - 46.4 °F 77% 30.34 in 10.0 mi Calm Calm - N/A   Clear
9:16 AM 53.6 °F - 44.6 °F 72% 30.34 in 10.0 mi Calm Calm - N/A   Clear
9:36 AM 55.4 °F - 44.6 °F 67% 30.34 in 10.0 mi Calm Calm - N/A   Clear
9:55 AM 59.0 °F - 46.4 °F 63% 30.33 in 10.0 mi Calm Calm - N/A   Clear
10:16 AM 60.8 °F - 46.4 °F 59% 30.32 in 10.0 mi Calm Calm - N/A   Clear
10:36 AM 60.8 °F - 46.4 °F 59% 30.32 in 10.0 mi NW 3.5 mph - N/A   Clear
10:56 AM 64.4 °F - 48.2 °F 56% 30.32 in 10.0 mi Calm Calm - N/A   Clear
11:16 AM 66.2 °F - 46.4 °F 49% 30.31 in 10.0 mi Calm Calm - N/A   Clear
11:36 AM 69.8 °F - 46.4 °F 43% 30.30 in 10.0 mi North 3.5 mph - N/A   Scattered Clouds
11:56 AM 71.6 °F - 46.4 °F 41% 30.29 in 10.0 mi NE 3.5 mph - N/A   Scattered Clouds
12:16 PM 73.4 °F - 44.6 °F 36% 30.28 in 10.0 mi Calm Calm - N/A Thunderstorm Thunderstorm
12:36 PM 71.6 °F - 46.4 °F 41% 30.27 in 10.0 mi Calm Calm - N/A Rain Light Rain
12:56 PM 69.8 °F - 53.6 °F 56% 30.27 in 10.0 mi NW 4.6 mph - N/A Rain Light Rain
1:16 PM 62.6 °F - 42.8 °F 48% 30.28 in 10.0 mi West 16.1 mph 26.5 mph 0.01 in Rain , Thunderstorm Light Thunderstorms and Rain
1:36 PM 64.4 °F - 37.4 °F 37% 30.29 in 10.0 mi West 9.2 mph 25.3 mph 0.01 in Rain , Thunderstorm Light Thunderstorms and Rain
1:56 PM 60.8 °F - 39.2 °F 45% 30.30 in 10.0 mi WSW 4.6 mph 10.4 mph 0.01 in Rain Light Rain
2:16 PM 60.8 °F - 44.6 °F 55% 30.32 in 10.0 mi South 4.6 mph - N/A   Overcast
2:36 PM 64.4 °F - 37.4 °F 37% 30.32 in 10.0 mi West 9.2 mph - N/A   Overcast
2:56 PM 60.8 °F - 41.0 °F 48% 30.33 in 10.0 mi WNW 19.6 mph 34.5 mph N/A Rain Light Rain
3:16 PM 60.8 °F - 41.0 °F 48% 30.32 in 10.0 mi West 10.4 mph 24.2 mph N/A   Overcast
3:36 PM 66.2 °F - 39.2 °F 37% 30.30 in 10.0 mi Calm Calm - N/A   Overcast
3:56 PM 66.2 °F - 41.0 °F 40% 30.29 in 10.0 mi SSW 9.2 mph - N/A   Overcast
4:16 PM 68.0 °F - 41.0 °F 37% 30.30 in 10.0 mi SSW 15.0 mph 18.4 mph N/A   Scattered Clouds
4:36 PM 69.8 °F - 42.8 °F 38% 30.30 in 10.0 mi South 15.0 mph 19.6 mph N/A   Clear
4:55 PM 69.8 °F - 42.8 °F 38% 30.29 in 10.0 mi South 10.4 mph 17.3 mph N/A   Clear
5:16 PM 66.2 °F - 42.8 °F 43% 30.31 in 10.0 mi SSW 12.7 mph 17.3 mph N/A   Clear
5:36 PM 62.6 °F - 42.8 °F 48% 30.31 in 10.0 mi SSW 11.5 mph - N/A   Clear
5:56 PM 62.6 °F - 42.8 °F 48% 30.31 in 10.0 mi SSW 6.9 mph - N/A   Clear
6:16 PM 64.4 °F - 42.8 °F 45% 30.33 in 10.0 mi WSW 6.9 mph - N/A   Clear
6:36 PM 64.4 °F - 42.8 °F 45% 30.32 in 10.0 mi NW 3.5 mph - N/A   Scattered Clouds
6:56 PM 64.4 °F - 42.8 °F 45% 30.32 in 10.0 mi Calm Calm - N/A   Clear
7:16 PM 62.6 °F - 44.6 °F 52% 30.31 in 10.0 mi Calm Calm - N/A   Clear
7:36 PM 62.6 °F - 42.8 °F 48% 30.30 in 10.0 mi SE 9.2 mph - N/A   Scattered Clouds
7:55 PM 60.8 °F - 42.8 °F 52% 30.29 in 10.0 mi SE 9.2 mph - N/A   Scattered Clouds
8:16 PM 60.8 °F - 42.8 °F 52% 30.28 in 10.0 mi SW 8.1 mph - N/A   Clear
8:36 PM 59.0 °F - 44.6 °F 59% 30.29 in 10.0 mi Calm Calm - N/A   Clear
8:56 PM 59.0 °F - 44.6 °F 59% 30.30 in 10.0 mi Calm Calm - N/A   Clear
9:16 PM 59.0 °F - 46.4 °F 63% 30.29 in 10.0 mi SW 3.5 mph - N/A   Clear
9:36 PM 59.0 °F - 42.8 °F 55% 30.29 in 10.0 mi Calm Calm - N/A   Clear
9:56 PM 59.0 °F - 44.6 °F 59% 30.29 in 10.0 mi Calm Calm - N/A   Clear
10:16 PM 59.0 °F - 42.8 °F 55% 30.30 in 10.0 mi Calm Calm - N/A   Clear
10:36 PM 53.6 °F - 44.6 °F 72% 30.30 in 10.0 mi NNE 4.6 mph - N/A   Clear
10:55 PM 53.6 °F - 44.6 °F 72% 30.30 in 10.0 mi ESE 5.8 mph - N/A   Clear
11:15 PM 53.6 °F - 46.4 °F 77% 30.30 in 10.0 mi SE 3.5 mph - N/A   Clear
11:36 PM 53.6 °F - 46.4 °F 77% 30.31 in 10.0 mi Calm Calm - N/A   Clear
11:56 PM 51.8 °F - 44.6 °F 76% 30.31 in 10.0 mi ESE 4.6 mph - N/A   Clear